Flag for Belarus Weather past 2 weeks in Barysaw, Belarus

Now
72 °F

Partly sunny.


Feels Like: 77 °F
Forecast: 55 / 79 °F
Wind: 13 mph from Northeast

Location: Minsk

Current Time: Jul 2, 2015 at 1:57:44 PM

Latest Report: Jul 2, 2015 at 1:30 PM


Visibility: N/A

Pressure: 30.30 "Hg

Humidity: 44%

Dew point: 48 °F

Location of BarysawLocation

Historic Weather in Barysaw — Graph

°F

Barysaw temperature yesterday

Maximum temperature yesterday: 72 °F (at 4:30 PM)
Minimum temperature yesterday: 50 °F (at 3:30 AM)
Average temperature yesterday: 61 °F

Past Weeks' High & Low Weather Summary

 TemperatureHumidityPressure
High77 °F (Jun 30, 4:30 PM)100% (Jun 18, 2:30 AM)30.30 "Hg (Jun 18, 2:30 AM)
Low43 °F (Jun 18, 2:30 AM)29% (Jun 29, 4:30 PM)29.80 "Hg (Jun 19, 8:00 AM)
Average61 °F65%29.97 "Hg
* Reported Jun 17 12:00 Noon — Jul 2 12:30 PM, Barysaw, Weather by CustomWeather, © 2015

Note: Actual official high and low records may vary slightly from our data, if they occured in-between our weather recording intervals... More about our weather records

Advertising

Barysaw weather history for previous 24 hours

 ConditionsComfort  
Time TempWeatherWind HumidityBarometerVisibility
12:30 PM
Thu, Jul 2
72 °FPartly sunny.13 mph47%30.30 "HgN/A
12:00 PM72 °FPartly sunny.13 mph47%30.30 "HgN/A
11:30 AM70 °FPartly sunny.13 mph50%30.27 "HgN/A
11:00 AM70 °FPartly sunny.13 mph53%30.27 "HgN/A
10:30 AM68 °FPartly sunny.10 mph60%30.27 "HgN/A
10:00 AM66 °FBroken clouds.13 mph64%30.27 "HgN/A
9:30 AM66 °FScattered clouds.10 mph64%30.27 "HgN/A
9:00 AM64 °FScattered clouds.10 mph68%30.27 "HgN/A
8:30 AM63 °FSunny.10 mph73%30.27 "Hg10 mi
8:00 AM61 °FSunny.10 mph77%30.24 "Hg10 mi
7:30 AM59 °FSunny.8 mph82%30.24 "Hg10 mi
7:00 AM59 °FSunny.8 mph82%30.24 "Hg10 mi
6:30 AM57 °FSunny.8 mph88%30.24 "Hg10 mi
6:00 AM55 °FSunny.8 mph94%30.24 "Hg10 mi
5:30 AM55 °FClear.6 mph94%30.21 "Hg10 mi
5:00 AM55 °FClear.8 mph94%30.21 "Hg10 mi
4:30 AM54 °FClear.6 mph94%30.21 "Hg10 mi
4:00 AM52 °FClear.6 mph94%30.21 "Hg10 mi
3:30 AM52 °FClear.6 mph94%30.21 "Hg10 mi
3:00 AM52 °FClear.6 mph100%30.21 "Hg10 mi
2:30 AM52 °FClear.6 mph94%30.18 "Hg10 mi
2:00 AM52 °FClear.3 mph94%30.18 "Hg10 mi
1:30 AM54 °FClear.6 mph88%30.18 "Hg10 mi
1:00 AM54 °FClear.6 mph94%30.18 "Hg10 mi
12:00 AM54 °FClear.3 mph94%30.18 "Hg10 mi
11:30 PM
Wed, Jul 1
55 °FClear.3 mph88%30.18 "Hg10 mi
11:00 PM54 °FClear.3 mph94%30.15 "Hg10 mi
10:30 PM55 °FSunny.3 mph88%30.15 "Hg10 mi
10:00 PM57 °FSunny.6 mph82%30.15 "Hg10 mi
9:30 PM59 °FSunny.6 mph77%30.15 "Hg10 mi
9:00 PM61 °FPartly sunny.6 mph72%30.12 "HgN/A
8:30 PM61 °FBroken clouds.8 mph72%30.12 "HgN/A
8:00 PM63 °FSprinkles. Partly sunny.6 mph59%30.12 "HgN/A
7:56 PM64 °FSprinkles. Partly sunny.6 mph56%30.12 "HgN/A
7:30 PM64 °FBroken clouds.13 mph56%30.12 "HgN/A
7:00 PM68 °FBroken clouds.13 mph56%30.09 "HgN/A
6:30 PM70 °FBroken clouds.17 mph53%30.09 "HgN/A
6:00 PM70 °FBroken clouds.13 mph57%30.07 "HgN/A
5:30 PM68 °FBroken clouds.8 mph64%30.09 "HgN/A
5:00 PM70 °FBroken clouds.10 mph53%30.07 "HgN/A
4:30 PM72 °FBroken clouds.10 mph47%30.07 "HgN/A
4:00 PM70 °FBroken clouds.6 mph69%30.09 "HgN/A
3:30 PM66 °FBroken clouds.3 mph78%30.09 "HgN/A
3:00 PM66 °FBroken clouds.3 mph73%30.09 "HgN/A
2:30 PM64 °FBroken clouds.1 mph83%30.09 "HgN/A
2:00 PM61 °FSprinkles. Partly sunny.3 mph94%30.12 "HgN/A
1:30 PM61 °FThunderstorms. Partly sunny.10 mph88%30.12 "Hg3 mi
1:00 PM70 °FThundershowers. Broken clouds.10 mph46%30.09 "HgN/A
Weather by CustomWeather, © 2015

See weather overviewHow to use our weather pages